FW8571 Weather Reports


Display with metric or nautical units.
time (UTC)temp
F
wind
direction
speed
MPH
gust
MPH
rain 1hr
in
rain 24hr
in
rain mn
in
humidity
%
barometer
mb
20260510204606 88 249 1.0 7.0 0.00 0.00 0.00 76 1016.2
20260510203054 89 229 1.0 5.0 0.00 0.00 0.00 75 1016.3
20260510201601 89 280 2.0 7.0 0.00 0.00 0.00 75 1016.2
20260510200055 89 264 2.0 7.0 0.00 0.00 0.00 74 1016.2
20260510194553 90 332 2.0 6.0 0.00 0.00 0.00 73 1016.4
20260510193057 90 236 3.0 8.0 0.00 0.00 0.00 73 1016.4
20260510191559 91 261 2.0 8.0 0.00 0.00 0.00 72 1016.5
20260510190055 90 256 3.0 12.0 0.00 0.00 0.00 70 1016.5
20260510184551 90 196 3.0 11.0 0.00 0.00 0.00 71 1016.6
20260510183052 90 217 4.0 10.0 0.00 0.00 0.00 71 1016.7
20260510181552 90 236 4.0 9.0 0.00 0.00 0.00 70 1016.8
20260510180051 90 255 4.0 11.0 0.00 0.00 0.00 69 1016.9
20260510174553 90 200 4.0 11.0 0.00 0.00 0.00 70 1017.0
20260510173105 89 227 5.0 10.0 0.00 0.00 0.00 71 1017.0
20260510171548 90 283 4.0 10.0 0.00 0.00 0.00 70 1017.1
20260510170047 90 232 4.0 12.0 0.00 0.00 0.00 71 1017.1
20260510164605 91 275 4.0 10.0 0.00 0.00 0.00 73 1017.1
20260510163045 90 234 4.0 10.0 0.00 0.00 0.00 75 1017.1
20260510161540 89 190 4.0 8.0 0.00 0.00 0.00 76 1017.1
20260510160036 90 165 3.0 10.0 0.00 0.00 0.00 75 1017.1
20260510154536 89 213 3.0 8.0 0.00 0.00 0.00 76 1017.3
20260510153131 88 220 5.0 11.0 0.00 0.00 0.00 78 1017.1
20260510151533 88 222 3.0 12.0 0.00 0.00 0.00 78 1017.0
20260510150026 87 192 4.0 10.0 0.00 0.00 0.00 78 1016.9
20260510144539 87 159 3.0 8.0 0.00 0.00 0.00 79 1017.1
20260510143019 86 254 3.0 8.0 0.00 0.00 0.00 77 1017.1
20260510141518 86 212 2.0 7.0 0.00 0.00 0.00 78 1017.1
20260510140014 85 172 4.0 7.0 0.00 0.00 0.00 78 1016.9
20260510134513 85 126 2.0 5.0 0.00 0.00 0.00 79 1016.8
20260510133013 84 187 3.0 8.0 0.00 0.00 0.00 80 1016.5
20260510131505 83 169 4.0 7.0 0.00 0.00 0.00 83 1016.6
20260510130101 81 166 3.0 7.0 0.00 0.00 0.00 84 1016.7
20260510124557 80 169 3.0 8.0 0.00 0.00 0.00 86 1016.4
20260510123053 78 147 0.0 3.0 0.00 0.00 0.00 88 1016.3
20260510121555 77 132 0.0 5.0 0.00 0.00 0.00 88 1016.3
20260510120048 77 119 0.0 4.0 0.00 0.00 0.00 89 1016.1
20260510114557 76 108 1.0 6.0 0.00 0.00 0.00 89 1015.8
20260510113044 76 110 2.0 6.0 0.00 0.00 0.00 89 1015.4
20260510111540 75 85 1.0 4.0 0.00 0.00 0.00 89 1015.4
20260510110039 75 104 0.0 1.0 0.00 0.00 0.00 89 1015.1
20260510104536 75 104 0.0 3.0 0.00 0.00 0.00 89 1014.9
20260510103042 75 104 0.0 0.0 0.00 0.00 0.00 89 1014.8
20260510101535 76 104 0.0 0.0 0.00 0.00 0.00 89 1014.5
20260510100039 76 104 0.0 0.0 0.00 0.00 0.00 89 1014.2
20260510094536 76 108 0.0 0.0 0.00 0.00 0.00 89 1014.0
20260510093031 76 108 0.0 2.0 0.00 0.00 0.00 88 1014.0
20260510091530 77 108 0.0 0.0 0.00 0.00 0.00 88 1014.0
20260510090034 77 108 0.0 2.0 0.00 0.00 0.00 88 1013.6
20260510084528 77 108 0.0 3.0 0.00 0.00 0.00 88 1013.4
20260510083035 78 106 2.0 6.0 0.00 0.00 0.00 88 1013.4
20260510081523 78 101 1.0 3.0 0.00 0.00 0.00 88 1013.4
20260510080022 79 146 0.0 1.0 0.00 0.00 0.00 88 1013.6
20260510074520 79 145 0.0 0.0 0.00 0.00 0.00 87 1013.6
20260510073018 79 145 0.0 0.0 0.00 0.00 0.00 87 1013.6
20260510071517 79 144 0.0 4.0 0.00 0.00 0.00 87 1013.8
20260510070025 79 186 0.0 0.0 0.00 0.00 0.00 87 1013.8
20260510064523 79 213 0.0 0.0 0.00 0.00 0.00 86 1014.1
20260510063013 79 216 0.0 2.0 0.00 0.00 0.00 86 1014.4
20260510061512 79 216 0.0 2.0 0.00 0.00 0.00 86 1014.3
20260510060010 79 231 0.0 0.0 0.00 0.00 0.00 86 1014.5
20260510054513 79 232 0.0 0.0 0.00 0.00 0.00 86 1014.8
20260510053005 79 233 0.0 0.0 0.00 0.00 0.00 85 1015.0
20260510051503 79 233 0.0 0.0 0.00 0.00 0.00 85 1015.1
20260510050003 79 230 0.0 0.0 0.00 0.00 0.00 85 1015.1
20260510044602 79 270 0.0 0.0 0.00 0.00 0.00 85 1015.3
20260510043105 79 270 0.0 0.0 0.00 0.00 0.00 85 1015.3
20260510041611 79 270 0.0 0.0 0.00 0.00 0.00 85 1015.2
20260510040055 79 270 0.0 0.0 0.00 0.00 0.00 85 1015.4
20260510034554 79 270 0.0 0.0 0.00 0.00 0.00 85 1015.2
20260510033056 80 271 0.0 0.0 0.00 0.00 0.00 85 1015.1
20260510031558 80 271 0.0 0.0 0.00 0.00 0.00 85 1015.0
20260510030056 80 273 0.0 0.0 0.00 0.00 0.00 85 1015.0
20260510024558 80 274 0.0 1.0 0.00 0.00 0.00 85 1014.8
20260510023052 80 274 0.0 1.0 0.00 0.00 0.00 85 1014.8
20260510021552 80 274 0.0 2.0 0.00 0.00 0.00 85 1014.7
20260510020054 80 274 0.0 3.0 0.00 0.00 0.00 85 1014.7
20260510014550 80 274 0.0 2.0 0.00 0.00 0.00 85 1014.6
20260510013103 80 267 0.0 2.0 0.00 0.00 0.00 85 1014.6
20260510011550 80 275 0.0 2.0 0.00 0.00 0.00 84 1014.3
20260510004557 81 271 0.0 3.0 0.00 0.00 0.00 84 1013.9
20260510003048 81 292 0.0 4.0 0.00 0.00 0.00 84 1013.8
20260510001548 81 257 0.0 4.0 0.00 0.00 0.00 83 1013.8
20260510000048 81 259 0.0 7.0 0.00 0.00 0.00 83 1013.5
20260509234601 81 156 2.0 5.0 0.00 0.00 0.00 83 1013.2
20260509233046 81 216 2.0 7.0 0.00 0.00 0.00 82 1013.2
20260509231547 82 270 3.0 7.0 0.00 0.00 0.00 81 1013.3
20260509230046 82 214 2.0 7.0 0.00 0.00 0.00 81 1013.1
20260509224545 83 211 3.0 9.0 0.00 0.00 0.00 80 1013.2
20260509223044 83 243 1.0 11.0 0.00 0.00 0.00 77 1013.0
20260509221602 85 223 3.0 7.0 0.00 0.00 0.00 75 1012.9
20260509220057 86 205 3.0 10.0 0.00 0.00 0.00 73 1012.8
20260509214544 86 196 2.0 10.0 0.00 0.00 0.00 72 1012.7
20260509213043 86 205 3.0 11.0 0.00 0.00 0.00 71 1012.7
20260509211545 86 209 4.0 10.0 0.00 0.00 0.00 69 1012.6
20260509210049 87 221 3.0 8.0 0.00 0.00 0.00 67 1012.6